Wind_Speed
82 82 83 80 76 72 69 72 71 70 74 77 80 77 75 70 67 63 56 59 56 55 57 49 46 44 48 49 46 44 41 38 34 36 38 35 34 33 32 31 32 31 31 29 30
90 86 86 84 82 79 75 73 73 72 71 74 78 82 79 78 73 71 67 64 56 52 58 54 47 46 41 48 49 47 46 42 37 39 40 38 39 38 35 33 35 33 32 31 31
95 90 89 87 86 83 81 76 75 75 72 71 74 80 84 77 78 69 69 67 61 60 55 56 52 50 45 42 49 50 50 45 42 42 43 41 42 42 38 38 39 37 35 34 34
100 98 92 91 90 87 86 82 78 76 76 74 75 70 79 80 80 74 73 73 67 63 62 59 55 53 52 45 40 53 53 51 47 46 46 46 43 44 44 44 43 40 39 38 38
102 102 99 94 93 91 89 86 82 78 79 78 76 75 71 79 78 75 74 74 69 66 63 60 60 57 55 53 44 43 54 54 54 50 49 50 47 48 49 49 48 45 45 43 44
107 105 103 100 96 95 93 90 87 83 80 82 80 78 75 70 76 80 77 76 75 77 74 72 65 63 61 57 53 48 45 52 57 56 54 53 53 54 55 55 52 51 50 48 49
110 108 107 104 101 98 97 95 93 88 85 83 83 82 78 77 71 77 84 84 80 81 82 77 74 68 65 63 57 56 54 46 47 54 57 56 54 60 58 54 56 55 54 54 52
113 111 110 109 106 102 100 99 96 95 91 87 83 83 81 79 77 75 81 85 82 80 75 77 75 69 69 66 62 61 57 54 52 45 43 59 57 61 58 57 59 57 58 60 57
117 114 113 113 111 109 103 100 99 99 95 90 85 84 83 82 80 79 79 84 86 83 81 78 76 74 69 68 67 61 61 62 61 57 52 44 60 61 63 63 63 61 60 61 59
121 119 117 117 116 114 110 105 102 100 96 91 89 87 86 87 85 84 82 83 86 88 85 80 79 79 70 71 71 65 64 59 57 57 54 53 52 53 59 62 63 63 63 60 56
125 124 123 121 119 118 116 111 102 100 95 92 93 94 94 95 93 90 88 85 85 89 90 85 80 78 80 78 71 69 62 64 65 63 61 56 54 54 54 59 64 66 63 63 59
131 128 127 125 123 123 119 114 105 100 104 104 101 99 99 100 98 95 90 89 88 87 88 87 84 81 80 77 76 71 73 64 60 67 65 63 54 54 56 57 59 61 62 62 59
133 133 132 128 127 125 119 113 114 113 110 104 102 101 100 96 98 97 94 91 90 89 87 88 88 86 85 80 79 79 73 76 73 64 60 60 60 58 55 58 61 60 59 59 58
136 137 136 132 134 125 118 116 115 117 115 107 104 104 103 102 98 98 98 95 90 90 91 87 88 91 89 87 85 82 80 78 74 75 71 68 60 58 61 60 59 58 58 60 62
135 137 136 137 134 127 123 123 120 123 120 115 110 109 107 104 103 102 101 101 96 96 91 92 91 91 88 91 91 87 87 84 79 77 75 72 72 64 63 63 61 66 70 68 67
135 138 136 139 134 132 131 128 126 129 126 117 115 108 108 106 107 108 103 102 102 100 96 93 94 93 90 92 90 91 88 87 82 80 76 74 73 65 64 65 65 68 68 69 73
130 135 135 137 135 134 134 131 132 134 124 117 114 111 112 112 111 112 109 105 105 106 101 99 95 95 95 94 92 93 91 91 90 82 75 80 82 71 69 70 72 71 72 75 79
123 130 133 135 132 134 136 133 135 132 124 116 114 113 113 113 114 114 112 108 106 104 105 103 99 95 97 96 94 98 98 94 91 87 80 74 74 75 80 81 82 80 79 82 85
119 123 128 134 133 134 136 136 134 126 121 116 116 113 114 113 113 114 112 110 108 107 108 106 104 101 98 97 98 96 96 97 95 92 89 85 81 80 84 86 86 89 86 87 88
113 119 122 129 130 132 135 135 128 125 121 120 117 115 114 114 116 117 117 113 111 109 108 109 108 104 102 101 98 100 99 99 97 97 95 92 90 89 85 88 92 91 90 90 87
112 115 115 121 127 132 134 132 124 121 121 119 117 115 111 112 115 115 116 114 113 112 110 109 107 110 108 102 100 100 102 103 101 98 93 91 93 87 87 89 89 91 93 95 94
110 108 116 118 127 129 130 127 122 120 119 117 115 113 106 108 111 109 106 105 104 105 110 112 111 111 111 108 106 104 103 104 102 98 97 95 91 93 92 91 92 95 96 98 99
96 101 114 118 121 123 125 125 120 119 116 116 112 110 103 102 103 102 100 97 94 94 97 101 110 111 109 109 108 105 104 104 102 101 98 96 94 97 98 102 103 103 101 100 101
99 106 112 114 116 118 120 122 119 117 119 116 114 111 105 102 100 99 98 94 91 91 90 91 95 106 108 107 107 105 105 104 104 98 91 91 96 98 97 98 103 105 106 105 105
99 101 109 115 115 111 111 116 118 117 119 110 112 107 103 102 101 98 95 95 93 90 89 89 88 90 95 101 107 108 104 101 100 93 92 91 92 94 99 104 104 104 107 107 105
100 103 109 108 108 108 110 113 113 114 114 111 101 104 104 102 101 101 100 97 96 93 91 91 88 90 92 90 93 94 92 90 93 94 95 97 95 97 102 106 109 112 111 108 108
91 87 97 105 109 110 109 109 108 108 110 109 107 106 109 108 109 106 104 100 97 94 91 92 90 89 89 91 91 90 93 99 100 100 102 99 97 99 100 102 100 102 103 105 106
Wind_Direction
230 227 226 225 226 226 226 226 227 228 227 227 226 225 223 224 224 221 218 235 242 242 239 235 239 247 250 242 239 236 231 228 229 238 237 234 235 237 235 237 241 239 247 251 256
228 229 226 226 225 225 226 225 225 227 228 228 229 226 227 226 226 225 228 226 238 239 239 236 238 242 250 250 241 235 233 230 231 236 238 235 236 237 237 240 244 247 249 254 258
224 226 227 224 226 225 226 227 226 226 228 225 229 230 228 227 226 227 229 224 221 225 233 232 235 237 241 251 248 238 234 232 230 234 239 236 235 240 242 242 246 250 254 256 260
223 223 223 226 225 226 226 228 226 226 227 226 222 227 230 231 229 229 227 231 227 227 229 230 231 237 237 240 246 243 237 234 232 234 238 239 238 240 242 243 246 250 253 254 257
225 224 222 222 224 224 226 227 226 227 226 227 225 222 227 230 232 229 227 227 230 228 231 235 237 235 238 237 240 242 244 237 236 236 235 240 241 242 244 244 247 248 249 253 256
223 224 226 223 222 223 223 227 227 225 227 227 227 226 223 227 231 229 227 229 231 231 236 240 240 237 237 238 236 239 236 248 239 239 241 241 242 245 244 246 253 253 251 254 257
222 222 224 227 223 223 223 224 226 227 227 228 227 228 229 225 229 230 229 229 231 237 238 240 240 241 237 237 238 238 236 237 252 250 242 242 243 245 248 252 249 252 258 261 260
219 221 223 224 226 225 225 226 225 225 224 227 227 228 229 229 227 229 230 229 231 230 234 238 238 237 236 236 238 238 238 237 242 246 253 246 245 248 250 252 255 257 261 263 263
219 219 221 223 224 226 226 226 230 228 226 224 226 227 228 228 227 226 225 227 230 230 232 233 235 237 237 237 239 240 242 240 242 243 244 252 250 251 252 253 255 255 257 261 266
218 219 219 221 224 225 226 227 225 230 233 230 227 227 227 229 228 226 226 226 227 230 229 234 234 232 236 237 236 239 240 239 244 249 244 246 255 258 258 257 258 258 258 262 265
217 218 220 221 222 224 226 227 227 229 232 232 230 227 228 228 228 227 226 226 227 232 233 233 236 239 232 233 237 236 236 241 241 243 243 244 251 252 257 260 259 260 264 267 269
217 218 220 220 222 224 224 226 227 227 228 230 230 230 229 229 229 229 229 229 229 231 235 236 235 237 238 239 235 237 238 233 239 239 242 243 245 252 255 258 262 265 266 267 269
218 218 220 220 222 224 224 225 226 227 228 228 231 235 236 231 230 231 230 231 232 234 235 236 237 237 239 240 239 239 238 240 237 234 243 245 243 249 254 257 258 262 265 266 265
217 219 221 221 222 223 224 225 226 228 227 226 230 232 234 235 233 233 232 233 233 234 236 237 238 239 241 242 241 241 240 240 241 237 237 239 241 253 253 251 255 258 263 265 265
217 220 219 222 223 223 225 226 227 229 228 228 228 230 233 235 235 234 234 233 233 233 234 234 236 238 241 243 245 244 242 241 240 243 247 246 248 246 249 254 258 261 259 259 259
219 219 221 223 223 223 224 225 227 229 229 229 230 230 233 235 235 237 235 232 234 235 235 237 238 238 238 239 242 246 244 244 241 241 243 248 247 242 251 249 252 256 261 264 267
219 220 220 223 224 224 225 225 227 228 230 229 230 231 233 234 235 236 237 236 235 234 236 236 237 238 239 240 241 243 246 246 244 242 245 246 249 242 246 252 256 255 259 268 267
218 219 221 222 223 225 225 226 227 229 230 230 231 231 232 234 235 236 238 238 238 237 236 239 239 239 239 240 241 241 244 247 249 249 244 247 253 252 251 250 253 255 260 259 263
216 219 219 222 223 225 227 225 227 228 230 230 231 231 232 235 234 236 237 238 239 237 236 236 238 241 241 242 239 242 244 246 249 250 251 249 246 251 252 252 255 256 263 261 264
214 217 218 222 223 225 227 227 226 228 229 229 230 231 233 235 236 237 238 239 240 239 238 236 237 241 242 242 243 242 244 246 249 250 251 253 253 253 252 254 255 255 259 260 265
211 215 217 220 223 225 228 228 226 227 228 229 229 230 233 237 237 239 239 240 242 242 240 239 238 240 241 243 244 245 246 248 247 249 252 254 254 253 255 256 259 260 260 262 264
208 210 215 219 222 224 227 228 227 226 226 227 228 228 229 234 236 239 241 242 243 244 243 241 239 239 241 242 244 246 248 250 250 251 252 251 253 254 256 258 259 260 261 262 264
205 208 212 218 223 225 227 227 227 227 227 227 227 227 228 232 235 239 239 239 241 242 243 243 240 238 240 242 244 246 248 249 250 252 254 255 257 257 256 255 256 259 261 264 265
203 207 211 215 220 224 227 229 229 228 227 226 226 224 226 229 233 236 238 238 239 241 242 243 244 240 239 241 242 244 246 249 250 252 254 256 256 256 257 257 257 258 261 264 266
204 206 210 215 218 221 224 229 231 230 230 227 226 225 226 227 231 233 235 238 239 240 242 243 244 245 244 243 242 242 245 248 248 249 251 251 253 254 256 256 259 261 262 264 266
204 206 208 212 218 221 224 227 230 231 231 229 228 226 226 226 228 231 233 235 238 240 242 242 244 245 247 246 244 244 246 249 250 251 250 250 253 256 256 259 260 262 264 267 268
203 210 213 214 218 220 224 230 232 233 234 231 227 225 224 225 227 231 233 234 236 238 240 241 243 244 244 244 247 248 249 247 248 249 251 254 258 261 262 262 263 265 266 268 270
Height
10606 10617 10627 10638 10647 10655 10664 10673 10682 10690 10699 10706 10714 10723 10730 10738 10747 10755 10759 10766 10772 10778 10783 10789 10792 10797 10801 10805 10810 10816 10821 10826 10831 10832 10834 10838 10838 10839 10843 10842 10843 10847 10847 10851 10851
10588 10599 10610 10620 10631 10641 10650 10659 10668 10676 10685 10694 10700 10710 10717 10726 10735 10744 10750 10755 10764 10769 10774 10780 10784 10790 10794 10797 10802 10807 10812 10819 10823 10823 10825 10831 10832 10832 10836 10837 10835 10840 10843 10845 10845
10566 10580 10592 10603 10615 10626 10636 10645 10653 10663 10672 10682 10689 10696 10704 10711 10723 10734 10741 10747 10750 10757 10763 10770 10775 10780 10786 10790 10794 10798 10802 10810 10815 10815 10817 10822 10825 10826 10829 10830 10828 10832 10836 10839 10839
10546 10559 10572 10586 10597 10609 10620 10630 10640 10649 10658 10668 10677 10684 10691 10700 10713 10722 10729 10736 10741 10747 10752 10759 10765 10771 10777 10781 10787 10789 10794 10800 10804 10806 10809 10812 10819 10820 10820 10820 10821 10825 10828 10830 10831
10527 10540 10552 10565 10578 10590 10602 10614 10625 10635 10644 10654 10664 10674 10680 10687 10701 10708 10716 10724 10730 10737 10743 10750 10756 10762 10767 10772 10777 10781 10785 10789 10793 10797 10801 10803 10809 10812 10811 10811 10815 10817 10818 10822 10823
10506 10521 10536 10547 10558 10571 10584 10595 10608 10619 10630 10639 10649 10661 10670 10677 10685 10695 10703 10711 10718 10724 10731 10737 10745 10751 10757 10763 10768 10770 10776 10780 10783 10789 10792 10796 10798 10800 10801 10802 10806 10808 10810 10813 10814
10484 10500 10515 10530 10541 10552 10563 10576 10589 10602 10614 10624 10635 10646 10657 10668 10672 10680 10688 10696 10704 10711 10718 10726 10733 10741 10748 10752 10758 10760 10767 10772 10774 10778 10783 10785 10791 10785 10790 10797 10796 10797 10801 10803 10804
10459 10479 10495 10509 10522 10534 10546 10557 10569 10582 10595 10609 10621 10633 10643 10654 10663 10667 10673 10681 10689 10694 10703 10713 10719 10729 10735 10742 10745 10750 10757 10764 10761 10767 10773 10776 10778 10775 10784 10786 10786 10789 10790 10791 10794
10437 10456 10474 10489 10502 10514 10529 10541 10552 10561 10576 10592 10607 10618 10630 10639 10646 10654 10659 10666 10673 10680 10689 10696 10707 10716 10722 10729 10733 10740 10747 10750 10749 10757 10763 10766 10765 10769 10772 10774 10775 10778 10779 10780 10784
10415 10433 10450 10465 10480 10495 10508 10521 10532 10546 10564 10583 10595 10606 10617 10621 10631 10638 10646 10653 10658 10666 10675 10682 10692 10699 10708 10712 10719 10725 10733 10738 10742 10747 10751 10755 10754 10759 10761 10763 10763 10764 10765 10770 10775
10394 10411 10425 10444 10458 10473 10486 10501 10523 10542 10558 10570 10578 10584 10590 10599 10609 10620 10630 10638 10646 10652 10660 10671 10680 10686 10687 10697 10709 10714 10720 10727 10730 10734 10740 10743 10745 10749 10749 10751 10750 10750 10755 10758 10764
10372 10388 10404 10421 10436 10448 10467 10491 10516 10528 10527 10534 10548 10559 10570 10582 10593 10606 10616 10625 10633 10638 10650 10662 10669 10668 10679 10687 10695 10700 10706 10709 10717 10721 10728 10731 10734 10736 10739 10740 10738 10740 10742 10744 10750
10351 10367 10380 10402 10414 10425 10455 10477 10482 10493 10504 10523 10536 10546 10556 10571 10585 10594 10604 10613 10622 10631 10639 10647 10653 10660 10666 10674 10682 10687 10691 10695 10703 10707 10714 10718 10725 10726 10729 10729 10729 10729 10730 10730 10733
10327 10342 10360 10380 10385 10416 10441 10454 10464 10471 10484 10509 10523 10531 10540 10553 10567 10577 10589 10600 10612 10616 10624 10637 10642 10645 10654 10660 10666 10672 10676 10681 10690 10694 10700 10705 10713 10715 10715 10718 10718 10719 10716 10716 10719
10303 10322 10343 10355 10375 10408 10424 10429 10442 10448 10459 10480 10500 10511 10524 10539 10552 10561 10571 10585 10594 10597 10612 10619 10624 10632 10643 10645 10648 10659 10661 10666 10676 10682 10690 10696 10700 10702 10704 10704 10709 10706 10703 10701 10702
10278 10302 10322 10331 10355 10377 10386 10404 10416 10415 10430 10465 10484 10504 10510 10523 10532 10539 10554 10566 10574 10584 10598 10606 10612 10618 10626 10628 10634 10640 10646 10652 10659 10667 10679 10680 10684 10698 10690 10692 10693 10690 10690 10689 10688
10258 10278 10303 10313 10336 10352 10367 10380 10383 10384 10422 10454 10472 10487 10493 10502 10511 10518 10533 10548 10554 10566 10580 10587 10593 10600 10608 10614 10621 10626 10629 10633 10641 10652 10668 10665 10666 10687 10675 10677 10677 10674 10673 10673 10673
10236 10257 10279 10295 10313 10325 10343 10353 10356 10380 10411 10443 10456 10466 10476 10483 10495 10504 10516 10529 10540 10552 10563 10571 10581 10587 10592 10597 10604 10606 10611 10619 10627 10640 10648 10651 10655 10663 10667 10658 10657 10657 10656 10654 10654
10215 10234 10259 10271 10289 10304 10314 10324 10344 10382 10401 10424 10433 10448 10460 10469 10480 10486 10499 10507 10517 10532 10539 10549 10560 10565 10574 10577 10585 10593 10602 10600 10610 10621 10629 10637 10643 10641 10645 10645 10643 10642 10640 10636 10636
10200 10216 10242 10256 10272 10281 10288 10307 10337 10362 10382 10396 10412 10427 10442 10449 10459 10463 10473 10488 10497 10510 10516 10531 10539 10550 10552 10560 10571 10580 10579 10589 10597 10604 10611 10620 10625 10622 10626 10627 10627 10628 10623 10621 10622
10181 10201 10224 10239 10249 10259 10270 10289 10323 10347 10362 10377 10396 10413 10425 10432 10442 10446 10458 10470 10476 10485 10498 10510 10522 10529 10532 10546 10554 10558 10563 10568 10575 10584 10593 10600 10604 10607 10608 10610 10612 10608 10608 10610 10608
10165 10196 10208 10222 10224 10238 10256 10278 10302 10323 10342 10360 10378 10392 10404 10409 10421 10432 10444 10451 10456 10463 10478 10487 10497 10504 10517 10525 10531 10539 10546 10551 10559 10568 10574 10579 10585 10588 10589 10591 10590 10586 10588 10586 10584
10172 10191 10193 10204 10211 10224 10242 10261 10286 10304 10327 10346 10363 10380 10393 10400 10409 10419 10427 10434 10441 10447 10454 10465 10473 10486 10497 10505 10515 10525 10529 10529 10535 10543 10556 10561 10570 10569 10569 10569 10566 10564 10563 10565 10563
10156 10167 10177 10187 10201 10217 10236 10250 10270 10287 10301 10325 10341 10359 10373 10384 10396 10403 10412 10421 10424 10430 10436 10443 10451 10466 10478 10482 10490 10498 10505 10509 10515 10531 10539 10547 10543 10548 10546 10543 10540 10542 10544 10546 10548
10137 10152 10165 10172 10189 10209 10224 10238 10254 10269 10287 10312 10330 10352 10363 10370 10378 10388 10396 10400 10407 10413 10420 10427 10436 10441 10451 10463 10472 10481 10486 10491 10501 10509 10513 10521 10523 10522 10516 10516 10520 10524 10521 10527 10532
10128 10143 10158 10173 10189 10204 10212 10226 10242 10256 10272 10300 10323 10338 10346 10354 10362 10360 10367 10377 10386 10396 10404 10411 10420 10426 10433 10444 10452 10464 10470 10475 10482 10487 10493 10496 10500 10495 10491 10495 10499 10502 10508 10510 10508
10127 10149 10160 10171 10180 10192 10204 10218 10234 10247 10258 10277 10295 10309 10317 10326 10334 10340 10349 10358 10368 10381 10386 10394 10403 10410 10418 10423 10433 10449 10456 10457 10460 10465 10469 10478 10478 10473 10471 10472 10480 10481 10481 10483 10482